Погода в Солнечной

Россия / Смоленская область     55°26′42″N   32°49′30″E
темп.,
°C
ветер,
м/с
пор.,
м/с
влажн.,
%
обл.,
%
осадки,
мм/ч
давл.,
гПа
погр.,
м
7 марта, вс
вс700:00−6юз6148599 0.1 1012870
03:00−4зюз71590100 0.6 10071086
06:00−4юз81691100 1.2 10011167
09:00−2юз81789100 2.9 9971283
12:00−4сз71288100 2.8 9961144
15:00−2зюз5859100 3.1 9961487
18:00−4з41371100 1.1 9971526
21:00−5з5148298 1.2 9981372
8 марта, пн
пн800:00−7з4128391 0.1 998696
03:00−6з4119195 0.2 999706
06:00−8сз4108485 0.2 999460
09:00−9сз5118554 0.2 1002713
12:00−7сз5979100 0.1 10051071
15:00−6сз5879100 0.3 10071165
18:00−7ссз4986100 0.2 1010817
21:00−10ссз3991100 0.3 1012479
9 марта, вт
вт900:00−12ссз379594 0.0 1014269
03:00−14сз249889 0.1 1016118
06:00−15сз269769 0.0 1017156
09:00−14ссз369163 0.0 1019350
12:00−11ссз357782 0.0 1020648
15:00−8сз356951 0.0 1021907
18:00−10сз248120 0.0 1021146
21:00−13сз129124 0.0 102320
10 марта, ср
ср1000:00−12ююз119164 0.0 102321
03:00−12ююв249181 0.0 1022141
06:00−11ююв3790100 0.0 1021314
09:00−10ююв2494100 1.5 1020298
12:00−7юв3489100 1.2 1020388
15:00−6в4687100 1.4 1020504
18:00−9в499099 0.1 1020378
21:00−11вюв499399 0.1 1020314
11 марта, чт
чт1100:00−11вюв4795100 2.0 1019312
03:00−11вюв3595100 2.4 1018164
06:00−11в229797 0.2 101767
09:00−7ююз139598 0.4 1017137
12:00−2юз3691100 0.4 1015570
15:00−1ююз4872100 0.4 1013833
18:00−3ю51179100 0.0 1012753
21:00−4ю61393100 0.1 1009830